Location: Peebles
(55.6412°N, 3.1714°W)
Time: 08:42:25
(UTC+01:00)

MOS 1 - Pass Details

Date: 26 September 2021
Orbit: 879 x 891 km, 99.1° (Epoch: 20 October)

Event Time Altitude Azimuth Distance (km) Brightness Sun altitude
Exits shadow 20:50:41 17° 149° (SSE) 2,101 5.8 -16.0°
Maximum altitude 20:55:09 72° 68° (ENE) 939 4.3 -16.6°
Drops below altitude 10° 21:00:51 10° 346° (NNW) 2,570 7.2 -17.4°
Sets 21:03:16 0° 344° (NNW) 3,515 8.0 -17.7°
